QPF
0.02 0.02 0.02 0.03 0.03 0.03 0.04 0.04 0.05 0.04 0.03 0.03 0.03 0.02 0.02 0.02 0.02 0.02 0.02 0.02 0.01 0.00 0.01 0.01 0.01 0.01 0.01 0.01 0.01 0.02 0.02 0.02 0.02 0.02 0.02 0.02 0.02 0.02
0.02 0.02 0.02 0.02 0.03 0.03 0.03 0.03 0.04 0.05 0.04 0.03 0.03 0.02 0.03 0.02 0.02 0.02 0.03 0.02 0.01 0.00 0.01 0.01 0.01 0.01 0.01 0.01 0.01 0.01 0.02 0.03 0.04 0.04 0.03 0.02 0.02 0.02
0.02 0.02 0.01 0.02 0.03 0.02 0.02 0.03 0.03 0.04 0.04 0.02 0.02 0.03 0.03 0.03 0.02 0.03 0.03 0.02 0.01 0.01 0.00 0.00 0.00 0.00 0.00 0.00 0.01 0.01 0.01 0.01 0.03 0.04 0.05 0.04 0.03 0.03
0.01 0.01 0.01 0.02 0.02 0.02 0.02 0.03 0.04 0.03 0.04 0.04 0.03 0.03 0.03 0.02 0.02 0.02 0.01 0.01 0.01 0.01 0.00 0.00 0.00 0.00 0.00 0.00 0.00 0.01 0.00 0.00 0.01 0.03 0.05 0.05 0.05 0.04
0.01 0.01 0.02 0.02 0.02 0.02 0.02 0.03 0.03 0.04 0.04 0.05 0.05 0.04 0.04 0.03 0.02 0.02 0.01 0.01 0.01 0.01 0.00 0.00 0.00 0.00 0.00 0.00 0.00 0.00 0.00 0.00 0.00 0.01 0.03 0.04 0.04 0.04
0.01 0.01 0.01 0.02 0.02 0.02 0.02 0.03 0.03 0.04 0.04 0.05 0.05 0.04 0.04 0.03 0.03 0.02 0.03 0.03 0.02 0.01 0.01 0.00 0.00 0.00 0.00 0.01 0.00 0.00 0.00 0.01 0.00 0.00 0.01 0.01 0.02 0.02
0.01 0.01 0.01 0.01 0.01 0.02 0.02 0.02 0.03 0.03 0.04 0.04 0.05 0.04 0.03 0.03 0.02 0.02 0.03 0.04 0.04 0.03 0.02 0.02 0.02 0.01 0.00 0.01 0.00 0.00 0.00 0.00 0.00 0.00 0.00 0.01 0.01 0.01
0.02 0.02 0.01 0.01 0.01 0.01 0.01 0.01 0.03 0.03 0.03 0.04 0.04 0.04 0.03 0.02 0.02 0.02 0.04 0.05 0.04 0.04 0.04 0.02 0.01 0.01 0.01 0.01 0.01 0.00 0.00 0.00 0.00 0.00 0.00 0.00 0.01 0.01
0.03 0.02 0.01 0.01 0.02 0.02 0.02 0.01 0.02 0.03 0.03 0.04 0.05 0.05 0.05 0.04 0.04 0.04 0.04 0.04 0.04 0.03 0.04 0.03 0.02 0.01 0.01 0.01 0.01 0.01 0.00 0.00 0.00 0.00 0.00 0.00 0.01 0.02
0.02 0.02 0.03 0.02 0.02 0.02 0.02 0.02 0.02 0.02 0.03 0.02 0.03 0.04 0.05 0.05 0.05 0.05 0.05 0.04 0.03 0.02 0.02 0.02 0.02 0.02 0.01 0.01 0.01 0.01 0.00 0.00 0.00 0.00 0.00 0.01 0.02 0.02
0.03 0.03 0.02 0.02 0.01 0.01 0.01 0.02 0.03 0.02 0.03 0.03 0.03 0.05 0.05 0.05 0.05 0.05 0.07 0.07 0.05 0.02 0.03 0.03 0.02 0.02 0.02 0.01 0.01 0.01 0.01 0.00 0.00 0.00 0.00 0.01 0.02 0.03
0.03 0.04 0.03 0.02 0.01 0.01 0.02 0.02 0.03 0.02 0.02 0.03 0.03 0.03 0.05 0.05 0.06 0.05 0.06 0.07 0.06 0.04 0.03 0.04 0.03 0.03 0.03 0.01 0.01 0.01 0.01 0.01 0.01 0.01 0.01 0.01 0.01 0.02
0.04 0.03 0.03 0.02 0.01 0.01 0.01 0.02 0.03 0.03 0.02 0.03 0.02 0.02 0.03 0.05 0.05 0.05 0.06 0.05 0.05 0.04 0.04 0.06 0.05 0.05 0.04 0.02 0.02 0.02 0.02 0.02 0.02 0.02 0.01 0.01 0.01 0.01
0.03 0.03 0.03 0.01 0.01 0.01 0.01 0.02 0.02 0.03 0.03 0.03 0.02 0.02 0.02 0.03 0.04 0.05 0.05 0.04 0.04 0.04 0.03 0.04 0.05 0.05 0.04 0.03 0.03 0.03 0.03 0.03 0.03 0.03 0.02 0.02 0.02 0.02
0.03 0.03 0.02 0.01 0.01 0.01 0.01 0.02 0.03 0.03 0.03 0.03 0.02 0.02 0.02 0.02 0.03 0.05 0.05 0.05 0.04 0.03 0.03 0.04 0.05 0.06 0.06 0.06 0.04 0.04 0.04 0.03 0.02 0.02 0.02 0.02 0.02 0.02
0.01 0.02 0.02 0.02 0.01 0.01 0.01 0.02 0.02 0.04 0.04 0.04 0.03 0.03 0.03 0.03 0.03 0.04 0.05 0.06 0.07 0.06 0.05 0.04 0.05 0.06 0.06 0.05 0.04 0.03 0.04 0.03 0.02 0.02 0.02 0.01 0.02 0.02
0.01 0.01 0.01 0.02 0.02 0.02 0.02 0.02 0.02 0.03 0.03 0.03 0.03 0.03 0.03 0.03 0.03 0.03 0.04 0.05 0.06 0.07 0.05 0.05 0.05 0.06 0.05 0.04 0.04 0.03 0.04 0.03 0.03 0.03 0.03 0.02 0.02 0.02
0.02 0.02 0.02 0.02 0.02 0.02 0.03 0.03 0.03 0.02 0.02 0.02 0.03 0.04 0.03 0.03 0.03 0.03 0.04 0.05 0.05 0.06 0.06 0.06 0.07 0.06 0.06 0.06 0.05 0.04 0.04 0.03 0.03 0.03 0.03 0.03 0.02 0.02
0.02 0.02 0.02 0.03 0.03 0.03 0.04 0.04 0.04 0.04 0.04 0.03 0.03 0.04 0.03 0.03 0.02 0.03 0.03 0.04 0.05 0.06 0.05 0.04 0.05 0.05 0.05 0.05 0.05 0.04 0.05 0.05 0.04 0.04 0.04 0.03 0.03 0.02
0.03 0.03 0.03 0.03 0.03 0.04 0.04 0.04 0.04 0.04 0.04 0.04 0.03 0.03 0.03 0.02 0.03 0.03 0.03 0.04 0.05 0.05 0.06 0.05 0.05 0.04 0.04 0.04 0.04 0.04 0.04 0.04 0.05 0.06 0.05 0.04 0.04 0.04
0.03 0.04 0.04 0.04 0.03 0.03 0.03 0.03 0.03 0.02 0.02 0.02 0.02 0.02 0.02 0.03 0.04 0.04 0.04 0.05 0.05 0.05 0.05 0.05 0.04 0.02 0.02 0.02 0.02 0.03 0.04 0.04 0.04 0.05 0.05 0.05 0.05 0.05
0.04 0.06 0.04 0.04 0.03 0.03 0.03 0.02 0.02 0.02 0.02 0.02 0.02 0.02 0.02 0.03 0.04 0.06 0.05 0.04 0.04 0.03 0.03 0.03 0.04 0.04 0.02 0.02 0.02 0.02 0.04 0.04 0.05 0.04 0.04 0.04 0.04 0.05
0.04 0.05 0.04 0.04 0.03 0.03 0.03 0.02 0.01 0.01 0.01 0.01 0.02 0.03 0.03 0.03 0.03 0.04 0.05 0.06 0.05 0.04 0.03 0.03 0.04 0.04 0.03 0.03 0.03 0.03 0.04 0.04 0.05 0.05 0.05 0.04 0.03 0.02
MSLP
1015.55 1015.76 1015.96 1016.15 1016.33 1016.51 1016.69 1016.88 1017.05 1017.20 1017.33 1017.43 1017.52 1017.60 1017.69 1017.79 1017.92 1018.08 1018.24 1018.39 1018.51 1018.57 1018.57 1018.49 1018.34 1018.16 1017.97 1017.79 1017.65 1017.56 1017.52 1017.49 1017.47 1017.41 1017.29 1017.11 1016.86 1016.57
1015.51 1015.74 1015.93 1016.12 1016.29 1016.46 1016.63 1016.80 1016.97 1017.12 1017.25 1017.37 1017.48 1017.57 1017.68 1017.80 1017.94 1018.09 1018.25 1018.39 1018.50 1018.55 1018.54 1018.45 1018.32 1018.14 1017.96 1017.80 1017.68 1017.60 1017.54 1017.50 1017.44 1017.33 1017.15 1016.90 1016.58 1016.22
1015.47 1015.72 1015.93 1016.12 1016.29 1016.46 1016.62 1016.78 1016.94 1017.09 1017.23 1017.35 1017.46 1017.57 1017.67 1017.79 1017.93 1018.07 1018.21 1018.34 1018.43 1018.47 1018.45 1018.38 1018.26 1018.11 1017.96 1017.83 1017.73 1017.66 1017.61 1017.56 1017.48 1017.34 1017.13 1016.82 1016.45 1016.05
1015.38 1015.65 1015.89 1016.09 1016.27 1016.44 1016.61 1016.78 1016.94 1017.09 1017.24 1017.36 1017.47 1017.58 1017.68 1017.79 1017.90 1018.02 1018.14 1018.25 1018.32 1018.36 1018.34 1018.28 1018.19 1018.08 1017.97 1017.87 1017.80 1017.76 1017.73 1017.69 1017.61 1017.47 1017.24 1016.92 1016.54 1016.12
1015.19 1015.50 1015.76 1015.98 1016.18 1016.37 1016.56 1016.74 1016.92 1017.09 1017.25 1017.39 1017.51 1017.61 1017.70 1017.79 1017.89 1017.98 1018.07 1018.16 1018.22 1018.25 1018.24 1018.21 1018.14 1018.07 1018.00 1017.95 1017.92 1017.92 1017.92 1017.90 1017.84 1017.71 1017.49 1017.20 1016.83 1016.43
1014.89 1015.23 1015.51 1015.76 1015.98 1016.20 1016.42 1016.64 1016.86 1017.06 1017.25 1017.41 1017.54 1017.65 1017.74 1017.82 1017.89 1017.96 1018.03 1018.10 1018.15 1018.18 1018.19 1018.17 1018.14 1018.11 1018.08 1018.07 1018.08 1018.11 1018.14 1018.15 1018.12 1018.02 1017.85 1017.59 1017.26 1016.90
1014.47 1014.82 1015.12 1015.40 1015.66 1015.91 1016.17 1016.44 1016.71 1016.96 1017.19 1017.39 1017.56 1017.68 1017.78 1017.85 1017.92 1017.97 1018.03 1018.08 1018.13 1018.16 1018.18 1018.19 1018.19 1018.19 1018.20 1018.22 1018.26 1018.31 1018.37 1018.40 1018.40 1018.34 1018.20 1018.00 1017.72 1017.42
1013.93 1014.29 1014.61 1014.91 1015.20 1015.50 1015.82 1016.14 1016.47 1016.79 1017.07 1017.32 1017.52 1017.68 1017.79 1017.88 1017.94 1018.00 1018.05 1018.10 1018.15 1018.20 1018.24 1018.27 1018.29 1018.31 1018.34 1018.38 1018.43 1018.49 1018.55 1018.59 1018.60 1018.57 1018.47 1018.31 1018.09 1017.84
1013.30 1013.67 1014.01 1014.33 1014.66 1015.01 1015.37 1015.76 1016.15 1016.53 1016.87 1017.17 1017.42 1017.61 1017.75 1017.86 1017.94 1018.01 1018.07 1018.14 1018.20 1018.27 1018.33 1018.37 1018.41 1018.45 1018.48 1018.52 1018.55 1018.60 1018.64 1018.68 1018.68 1018.65 1018.58 1018.45 1018.27 1018.06
1012.58 1012.97 1013.33 1013.69 1014.06 1014.46 1014.88 1015.32 1015.77 1016.20 1016.60 1016.95 1017.24 1017.47 1017.64 1017.77 1017.88 1017.97 1018.06 1018.15 1018.24 1018.33 1018.41 1018.48 1018.53 1018.57 1018.59 1018.61 1018.62 1018.63 1018.64 1018.63 1018.61 1018.56 1018.48 1018.36 1018.20 1018.02
1011.82 1012.24 1012.64 1013.04 1013.46 1013.91 1014.38 1014.87 1015.37 1015.84 1016.28 1016.66 1016.99 1017.24 1017.45 1017.61 1017.75 1017.87 1017.99 1018.11 1018.24 1018.36 1018.46 1018.55 1018.61 1018.65 1018.66 1018.65 1018.62 1018.59 1018.54 1018.49 1018.42 1018.33 1018.22 1018.09 1017.93 1017.76
1011.04 1011.51 1011.97 1012.43 1012.91 1013.41 1013.93 1014.46 1014.99 1015.49 1015.95 1016.35 1016.69 1016.96 1017.19 1017.38 1017.54 1017.70 1017.85 1018.02 1018.18 1018.33 1018.47 1018.58 1018.65 1018.69 1018.69 1018.65 1018.59 1018.50 1018.40 1018.29 1018.17 1018.03 1017.88 1017.72 1017.55 1017.38
1010.27 1010.82 1011.36 1011.90 1012.44 1013.01 1013.58 1014.14 1014.69 1015.20 1015.66 1016.05 1016.39 1016.67 1016.90 1017.11 1017.29 1017.48 1017.68 1017.87 1018.07 1018.27 1018.43 1018.57 1018.66 1018.70 1018.69 1018.63 1018.54 1018.42 1018.27 1018.11 1017.94 1017.76 1017.57 1017.38 1017.19 1017.01
1009.59 1010.23 1010.86 1011.49 1012.12 1012.74 1013.36 1013.95 1014.50 1015.01 1015.46 1015.84 1016.16 1016.42 1016.65 1016.86 1017.07 1017.28 1017.50 1017.73 1017.96 1018.19 1018.38 1018.54 1018.65 1018.70 1018.69 1018.63 1018.52 1018.38 1018.21 1018.02 1017.81 1017.60 1017.38 1017.17 1016.96 1016.77
1009.07 1009.81 1010.54 1011.26 1011.97 1012.66 1013.32 1013.93 1014.48 1014.97 1015.40 1015.75 1016.04 1016.29 1016.50 1016.71 1016.92 1017.14 1017.38 1017.64 1017.90 1018.14 1018.36 1018.53 1018.66 1018.72 1018.72 1018.66 1018.55 1018.40 1018.22 1018.02 1017.81 1017.58 1017.36 1017.13 1016.92 1016.72
1008.82 1009.64 1010.46 1011.27 1012.05 1012.79 1013.48 1014.10 1014.66 1015.13 1015.52 1015.85 1016.11 1016.33 1016.53 1016.72 1016.93 1017.15 1017.40 1017.66 1017.93 1018.18 1018.40 1018.58 1018.71 1018.77 1018.78 1018.73 1018.63 1018.49 1018.32 1018.12 1017.92 1017.70 1017.48 1017.26 1017.04 1016.84
1008.92 1009.79 1010.67 1011.54 1012.37 1013.15 1013.86 1014.50 1015.04 1015.49 1015.86 1016.15 1016.39 1016.58 1016.76 1016.94 1017.14 1017.35 1017.59 1017.84 1018.10 1018.34 1018.54 1018.71 1018.82 1018.88 1018.88 1018.83 1018.73 1018.60 1018.45 1018.27 1018.08 1017.88 1017.67 1017.46 1017.25 1017.05
1009.44 1010.32 1011.21 1012.10 1012.95 1013.75 1014.47 1015.09 1015.62 1016.06 1016.40 1016.67 1016.88 1017.06 1017.22 1017.38 1017.56 1017.76 1017.97 1018.20 1018.42 1018.63 1018.80 1018.93 1019.00 1019.03 1019.01 1018.94 1018.84 1018.71 1018.55 1018.39 1018.21 1018.02 1017.82 1017.62 1017.42 1017.22
1010.35 1011.19 1012.06 1012.93 1013.77 1014.55 1015.25 1015.86 1016.38 1016.79 1017.12 1017.37 1017.57 1017.73 1017.87 1018.01 1018.17 1018.34 1018.52 1018.70 1018.87 1019.02 1019.14 1019.21 1019.23 1019.21 1019.14 1019.04 1018.90 1018.75 1018.59 1018.41 1018.23 1018.04 1017.84 1017.64 1017.43 1017.22
1011.58 1012.35 1013.15 1013.96 1014.74 1015.49 1016.16 1016.74 1017.24 1017.64 1017.95 1018.19 1018.37 1018.51 1018.64 1018.76 1018.89 1019.02 1019.16 1019.29 1019.40 1019.48 1019.53 1019.53 1019.48 1019.38 1019.25 1019.09 1018.91 1018.71 1018.51 1018.31 1018.10 1017.89 1017.67 1017.45 1017.22 1016.99
1013.01 1013.66 1014.37 1015.09 1015.81 1016.49 1017.12 1017.67 1018.14 1018.52 1018.81 1019.04 1019.21 1019.34 1019.44 1019.54 1019.64 1019.73 1019.81 1019.88 1019.93 1019.94 1019.91 1019.83 1019.70 1019.53 1019.33 1019.10 1018.85 1018.60 1018.34 1018.09 1017.83 1017.58 1017.32 1017.06 1016.79 1016.52
1014.46 1015.00 1015.60 1016.23 1016.86 1017.48 1018.06 1018.57 1019.01 1019.36 1019.64 1019.85 1020.00 1020.11 1020.19 1020.26 1020.31 1020.36 1020.39 1020.40 1020.38 1020.33 1020.22 1020.07 1019.87 1019.63 1019.35 1019.05 1018.74 1018.42 1018.10 1017.78 1017.47 1017.16 1016.85 1016.53 1016.22 1015.90
1015.80 1016.23 1016.73 1017.27 1017.83 1018.39 1018.92 1019.39 1019.80 1020.13 1020.39 1020.57 1020.70 1020.78 1020.82 1020.85 1020.85 1020.85 1020.82 1020.78 1020.70 1020.59 1020.43 1020.22 1019.96 1019.67 1019.33 1018.98 1018.60 1018.22 1017.84 1017.46 1017.08 1016.71 1016.35 1015.98 1015.61 1015.24
Thickness
5709 5708 5707 5709 5708 5708 5707 5705 5701 5698 5700 5704 5705 5704 5703 5702 5700 5699 5699 5697 5696 5695 5694 5693 5692 5692 5691 5690 5690 5689 5688 5687 5686 5685 5684 5683 5682 5681
5705 5704 5703 5706 5705 5705 5704 5703 5702 5699 5698 5702 5701 5702 5699 5699 5696 5696 5696 5694 5693 5692 5691 5690 5689 5689 5688 5687 5686 5685 5684 5683 5682 5681 5681 5680 5679 5678
5701 5701 5699 5699 5700 5701 5701 5700 5698 5697 5694 5696 5697 5696 5693 5693 5692 5692 5693 5692 5692 5690 5688 5687 5686 5685 5684 5683 5682 5681 5680 5679 5678 5678 5677 5677 5676 5675
5697 5696 5695 5696 5694 5694 5694 5693 5693 5692 5689 5687 5689 5690 5689 5689 5688 5687 5689 5691 5690 5687 5685 5683 5683 5681 5680 5679 5679 5677 5676 5675 5674 5673 5673 5673 5672 5671
5694 5692 5691 5690 5688 5689 5687 5688 5687 5688 5686 5684 5685 5685 5686 5685 5684 5685 5686 5685 5686 5684 5682 5681 5679 5678 5676 5675 5674 5673 5672 5670 5669 5668 5668 5667 5667 5665
5691 5689 5688 5687 5685 5683 5683 5682 5682 5681 5681 5681 5682 5682 5681 5681 5679 5679 5680 5681 5682 5682 5680 5679 5676 5674 5673 5672 5670 5669 5667 5666 5664 5663 5662 5661 5661 5660
5686 5685 5684 5682 5680 5678 5679 5678 5677 5676 5677 5678 5677 5677 5676 5674 5674 5676 5675 5675 5677 5677 5677 5676 5675 5673 5671 5669 5666 5664 5662 5661 5659 5658 5657 5656 5655 5654
5681 5680 5680 5677 5674 5671 5670 5670 5670 5670 5671 5671 5673 5671 5670 5671 5671 5670 5670 5669 5669 5673 5670 5670 5670 5669 5668 5667 5664 5660 5658 5656 5654 5653 5651 5650 5649 5649
5675 5674 5675 5675 5671 5670 5667 5664 5664 5664 5663 5665 5667 5667 5667 5667 5664 5664 5663 5662 5662 5665 5663 5663 5664 5663 5663 5662 5658 5655 5652 5650 5649 5648 5646 5645 5644 5643
5670 5669 5667 5667 5666 5664 5664 5663 5662 5662 5660 5661 5662 5662 5662 5661 5659 5659 5658 5657 5658 5659 5658 5656 5657 5657 5658 5655 5652 5650 5647 5645 5644 5643 5641 5640 5639 5638
5665 5664 5662 5660 5657 5655 5656 5656 5656 5656 5655 5655 5654 5654 5653 5652 5651 5652 5652 5652 5652 5654 5654 5650 5650 5650 5650 5650 5648 5644 5642 5641 5639 5638 5636 5635 5634 5633
5660 5658 5654 5652 5649 5647 5649 5649 5649 5650 5651 5651 5649 5648 5649 5648 5646 5645 5646 5646 5646 5646 5647 5644 5643 5642 5642 5644 5643 5640 5638 5636 5635 5633 5632 5630 5629 5628
5655 5653 5651 5645 5642 5641 5641 5643 5642 5642 5645 5645 5646 5646 5645 5644 5643 5642 5641 5640 5639 5639 5640 5637 5636 5635 5635 5636 5636 5636 5634 5633 5631 5629 5628 5626 5624 5623
5646 5646 5644 5638 5635 5634 5634 5634 5634 5634 5639 5640 5640 5639 5639 5638 5638 5636 5633 5632 5631 5631 5631 5629 5629 5628 5628 5627 5628 5629 5629 5628 5627 5626 5624 5621 5619 5618
5639 5636 5633 5630 5628 5628 5627 5627 5627 5630 5632 5632 5632 5631 5631 5631 5629 5627 5626 5624 5623 5623 5624 5621 5621 5621 5620 5620 5621 5622 5621 5621 5620 5619 5618 5617 5616 5614
5630 5628 5624 5623 5623 5623 5623 5623 5623 5624 5625 5625 5625 5624 5624 5622 5621 5620 5619 5618 5617 5617 5616 5615 5614 5613 5613 5613 5613 5613 5614 5613 5613 5612 5611 5610 5610 5610
5622 5622 5623 5622 5621 5621 5621 5620 5619 5618 5617 5617 5617 5616 5615 5614 5614 5613 5611 5611 5609 5609 5609 5608 5606 5605 5604 5604 5605 5605 5605 5605 5605 5604 5603 5604 5604 5605
5611 5617 5617 5617 5616 5616 5615 5614 5613 5611 5610 5609 5608 5608 5607 5606 5605 5605 5603 5602 5602 5602 5602 5601 5600 5599 5598 5598 5594 5596 5596 5597 5597 5597 5596 5596 5598 5600
5606 5610 5611 5611 5610 5609 5608 5607 5606 5605 5602 5601 5600 5599 5599 5599 5597 5596 5595 5594 5594 5594 5594 5593 5592 5591 5590 5591 5590 5585 5586 5587 5588 5589 5589 5589 5590 5593
5601 5602 5603 5603 5603 5601 5600 5600 5599 5598 5596 5594 5593 5592 5591 5591 5590 5589 5588 5586 5587 5586 5586 5587 5585 5584 5583 5582 5581 5580 5576 5578 5579 5580 5582 5583 5584 5584
5595 5595 5595 5595 5595 5594 5592 5591 5591 5590 5588 5587 5586 5584 5584 5583 5582 5582 5581 5577 5578 5580 5579 5579 5577 5573 5574 5574 5574 5574 5573 5570 5571 5571 5572 5574 5575 5577
5589 5588 5588 5587 5586 5585 5585 5584 5583 5582 5581 5579 5578 5577 5576 5575 5575 5574 5574 5574 5573 5573 5572 5572 5570 5568 5567 5566 5566 5567 5567 5566 5564 5562 5562 5562 5565 5568
5582 5580 5580 5578 5577 5577 5577 5576 5575 5575 5573 5572 5570 5569 5568 5568 5568 5568 5568 5568 5567 5566 5565 5565 5563 5562 5561 5560 5560 5561 5561 5562 5562 5561 5560 5558 5557 5557